Regional Weather Roundup
Issued by NWS

Home | Current Version | Previous Version | Text Only | Print | Product List | Glossary Off
Versions: 1 2 3 4 5 6 7 8 9 10 11 12 13 14 15 16 17 18 19 20 21 22 23 24 25 26 27 28 29 30 31 32 33 34 35 36 37 38 39 40 41 42 43 44 45 46 47 48 49 50

000
ASUS43 KDMX 302103
RWRIA

WEATHER ROUNDUP FOR IOWA
NATIONAL WEATHER SERVICE DES MOINES IA
400 PM CDT MON MAY 30 2016

NOTE: "FAIR" INDICATES FEW OR NO CLOUDS BELOW 12,000 FEET WITH NO
SIGNIFICANT WEATHER AND/OR OBSTRUCTIONS TO VISIBILITY.

* - THESE STATIONS ARE NOT NWS STATIONS...THUS NOT UNDER NWS
QUALITY CONTROL.  THEY ALSO DO NOT REPORT WEATHER SUCH
AS PRECIPITATION OR FOG.

IAZ001>003-012>014-020>022-031>034-043>046-302200-
   NORTHWEST IOWA

CITY           SKY/WX    TMP DP  RH WIND       PRES   REMARKS
CARROLL *      MOSUNNY   88  57  35 S15G22    29.91F HX  86
CHEROKEE *     MOSUNNY   82  55  40 S10G18    29.89F HX  81
DENISON *      SUNNY     84  55  37 SW10G17   29.89F HX  83
LE MARS *      CLOUDY    84  57  39 S13G20    29.87F HX  83
ORANGE CITY *  PTSUNNY   84  55  37 S12       29.88F HX  83
SHELDON *      MOSUNNY   82  54  36 S12G22    29.88F HX  81
SIOUX CITY     MOSUNNY   87  57  35 S15       29.86F HX  86
SPENCER        CLOUDY    84  53  34 S12       29.90F HX  82
STORM LAKE *     N/A     84  52  32 S18       29.91F HX  82
$$

IAZ055>058-069>071-079>083-090>094-302200-
   SOUTHWEST IOWA

CITY           SKY/WX    TMP DP  RH WIND       PRES   REMARKS
ATLANTIC *     MOSUNNY   84  61  45 S18G24    29.91F HX  84
AUDUBON *        N/A     88  61  40 S10       29.93F HX  88
CLARINDA *       N/A     84  57  39 MISG      29.92F HX  83
COUNCIL BLFS * SUNNY     84  63  48 S12G18    29.89F HX  85
CRESTON *      MOSUNNY   84  59  42 S15G24    29.96F HX  84
HARLAN  *      MOSUNNY   86  57  37 S9G18     29.93F HX  85
LAMONI         MOSUNNY   84  61  45 S15G22    29.95F HX  84
RED OAK *      MOSUNNY   82  63  51 SE9G16    29.91F HX  83
SHENANDOAH *   PTSUNNY   84  59  42 S12G18    29.90F HX  84
$$

IAZ047>049-059>061-072>074-084-302200-
   CENTRAL IOWA

CITY           SKY/WX    TMP DP  RH WIND       PRES   REMARKS
AMES           MOSUNNY   85  60  42 SW12G23   29.91F HX  85
ANKENY *       MOSUNNY   88  61  40 S9G17     29.91F HX  88
BOONE *        PTSUNNY   86  57  37 VRB6      29.91F HX  85
CHARITON *     MOSUNNY   86  59  39 S15G22    29.96F HX  85
DES MOINES     MOSUNNY   87  59  38 S15       29.92F HX  86
GRINNELL*      MOSUNNY   84  55  37 S12       29.96F HX  83
KNOXVILLE *    MOSUNNY   86  59  39 S13       29.93F HX  85
MARSHALLTOWN   MOSUNNY   87  61  41 S10       29.93F HX  87
NEWTON *       MOSUNNY   86  61  42 S10G21    29.94F HX  86
PELLA *        SUNNY     87  59  38 S8        29.95F HX  86
PERRY *          N/A     90  54  29 SW17G24   29.91F HX  87
$$

IAZ004>006-015-016-023>025-035-036-302200-
   NORTH CENTRAL IOWA

CITY           SKY/WX    TMP DP  RH WIND       PRES   REMARKS
ALGONA *       SUNNY     82  57  42 SE12G17   29.92F HX  82
CLARION *      SUNNY     84  61  45 S15       29.93F HX  84
ESTHERVILLE    PTSUNNY   81  59  47 SE14      29.91F HX  81
FORT DODGE *   CLOUDY    84  61  45 S9        29.92F HX  84
MASON CITY     SUNNY     81  61  50 SE9G22    29.97F HX  82
FOREST CITY *  SUNNY     79  59  50 SE10G16   29.96F HX  80
WEBSTER CITY * PTSUNNY   86  61  42 S15G21    29.90F HX  86
IOWA FALLS *     N/A     84  57  39 S14G20    29.95F HX  83
$$

IAZ007>011-017>019-026>030-037>042-050>054-066-302200-
   NORTHEAST IOWA

CITY           SKY/WX    TMP DP  RH WIND       PRES   REMARKS
CEDAR RAPIDS   SUNNY     83  63  50 S8G17     29.97F HX  84
CHARLES CITY * SUNNY     82  54  36 S12G17    29.98F HX  81
CLINTON *      SUNNY     85  58  39 SW7       29.98F HX  84
DECORAH *      SUNNY     81  50  34 VRB7G15   29.98F HX  80
DUBUQUE        SUNNY     83  50  31 VRB3      30.00F HX  81
MONTICELLO *   SUNNY     84  57  39 S8        29.98S HX  83
OELWEIN *      SUNNY     81  55  41 S8        29.99F HX  80
WATERLOO       SUNNY     81  60  48 SE8       29.95F HX  82
$$

IAZ064-065-067-068-078-302200-
   EAST CENTRAL IOWA

CITY           SKY/WX    TMP DP  RH WIND       PRES   REMARKS
DAVENPORT      SUNNY     84  54  35 S8        29.98F HX  83
IOWA CITY      SUNNY     84  61  45 S7        29.98F HX  84
MT. PLEASANT * MOSUNNY   88  64  45 S9        29.98F HX  89
MUSCATINE *    SUNNY     86  63  45 SW9       29.97F HX  87
QUAD CITIES    SUNNY     86  59  39 CALM      29.97F HX  85
$$

IAZ062-063-075>077-085>089-095>099-302200-
   SOUTHEAST IOWA

CITY           SKY/WX    TMP DP  RH WIND       PRES   REMARKS
BURLINGTON     CLOUDY    84  62  47 S9        29.98F HX  85
FAIRFIELD *      N/A    N/A N/A N/A MISG        N/A
FORT MADISON *   N/A     86  63  45 S7        29.99F HX  87
KEOKUK *       CLOUDY    84  63  48 S7        29.98F HX  85
OSKALOOSA *      N/A     87  58  36 SW12G18   29.96F HX  86
OTTUMWA        MOSUNNY   85  64  49 S7        29.96F HX  86
WASHINGTON *   SUNNY     86 -27   1 S9G16     29.98F HX  81
$$

ABBREVIATIONS USED IN REMARKS
   TC - TEMPERATURES IN CELSIUS
  WCI - WIND CHILL INDEX
   HX - HEAT INDEX
  VSB - VISIBILITY
$$




USA.gov is the U.S. government's official web portal to all federal, state and local government web resources and services.